Regional Weather Roundup
Issued by NWS

Home | Current Version | Previous Version | Text Only | Print | Product List | Glossary On
Versions: 1 2 3 4 5 6 7 8 9 10 11 12 13 14 15 16 17 18 19 20 21 22 23 24 25 26 27 28 29 30 31 32 33 34 35 36 37 38 39 40 41 42 43 44 45 46 47 48 49 50
000
ASUS45 KBOI 301410
RWRID
WEATHER ROUNDUP FOR IDAHO
NATIONAL WEATHER SERVICE BOISE ID
800 AM MDT SAT AUG 30 2014

NOTE: "FAIR" INDICATES FEW OR NO CLOUDS BELOW 12000 FEET
WITH NO SIGNIFICANT WEATHER AND/OR OBSTRUCTIONS TO VISIBILITY

IDZ012-014-301500-
SOUTHWEST IDAHO


CITY           SKY/WX    TMP DP  RH WIND       PRES   REMARKS
BOISE          CLOUDY    64  44  48 NW8       29.90R
CALDWELL       CLOUDY    64  37  36 NW12      29.91R
MOUNTAIN HOME  CLOUDY    66  41  39 NW17      29.89R
$$

IDZ016-017-301500-
SOUTHCENTRAL IDAHO


CITY           SKY/WX    TMP DP  RH WIND       PRES   REMARKS
BURLEY         MOSUNNY   61  46  57 W14G22    29.91R
JEROME         MOCLDY    56  49  77 S8        29.93R
TWIN FALLS     PTCLDY    64  42  44 SW18G26   29.94R
$$

IDZ019>023-301500-
SOUTHEAST IDAHO


CITY           SKY/WX    TMP DP  RH WIND       PRES   REMARKS
IDAHO FALLS    MOSUNNY   57  49  74 NE5       29.91S
POCATELLO      SUNNY     59  48  67 SW7       29.92R
REXBURG        MOSUNNY   59  46  62 E8        29.92S
$$

IDZ006-010-011-018-031-032-301500-
CENTRAL IDAHO MOUNTAINS


CITY           SKY/WX    TMP DP  RH WIND       PRES   REMARKS
MCCALL         CLOUDY    52  40  63 NE3       29.94R
HAILEY         PTSUNNY   55  50  82 W12       29.95S
STANLEY          N/A     49  47  93 S7        30.05S
SALMON         CLOUDY    55  52  88 CALM      29.91S
CHALLIS        CLOUDY    56  52  86 S8        29.96F
$$

IDZ002-004-006-007-026-301500-
NORTHERN IDAHO


CITY           SKY/WX    TMP DP  RH WIND       PRES   REMARKS
LEWISTON       CLOUDY    64  48  56 CALM      29.89R
LOWELL           N/A     58  53  84 CALM      29.93R
COEUR D`ALENE  CLOUDY    55  45  67 CALM      29.88F
MULLAN PASS    CLOUDY    45  38  76 VRB6      29.97S
$$


USA.gov is the U.S. government's official web portal to all federal, state and local government web resources and services.